Back to catalog

BEIDOU 3 IGSO-1

AliveNavigationGEO
NORAD 44204·PAYLOAD·🇨🇳 China

Launched Apr 20, 2019 from Xichang Satellite Launch Center

Loading…

TLE

FreshSource: Space-Track

Epoch: Sep 13, 2026, 21:30 UTC

1 44204U 19023A   26256.89610309 -.00000216  00000-0  00000-0 0  9996
2 44204  58.8231  36.7420 0027803 223.4337 174.0981  1.00266072  8102

Track BEIDOU 3 IGSO-1 in real time with AllMySat

Download on the App Store